WD6AWP Weather Reports


Display with metric or nautical units.
time (UTC)temp
F
wind
direction
speed
MPH
gust
MPH
rain 1hr
in
rain 24hr
in
rain mn
in
humidity
%
barometer
mb
20211017123215 49 277 0.0 0.0 0.00 0.00 0.00 95 1013.9
20211017121615 49 277 0.0 0.0 0.00 0.00 0.00 94 1013.9
20211017120109 50 277 0.0 0.0 0.00 0.00 0.00 94 1013.9
20211017114610 50 277 0.0 0.0 0.00 0.00 0.00 95 1013.9
20211017113107 50 277 0.0 0.0 0.00 0.00 0.00 94 1013.9
20211017111605 50 277 0.0 0.0 0.00 0.00 0.00 94 1014.0
20211017110157 51 277 0.0 0.0 0.00 0.00 0.00 93 1014.3
20211017104544 51 277 0.0 0.0 0.00 0.00 0.00 93 1014.3
20211017103054 52 277 0.0 0.0 0.00 0.00 0.00 93 1014.5
20211017101542 52 277 0.0 0.0 0.00 0.00 0.00 93 1014.5
20211017100049 52 277 0.0 0.0 0.00 0.00 0.00 94 1014.8
20211017094615 52 277 0.0 0.0 0.00 0.00 0.00 93 1014.9
20211017093038 53 277 0.0 0.0 0.00 0.00 0.00 92 1015.0
20211017091605 53 277 0.0 0.0 0.00 0.00 0.00 92 1015.1
20211017090058 54 277 0.0 0.0 0.00 0.00 0.00 92 1015.2
20211017084558 54 277 0.0 0.0 0.00 0.00 0.00 93 1015.2
20211017083033 54 277 0.0 0.0 0.00 0.00 0.00 92 1015.1
20211017081536 54 277 0.0 0.0 0.00 0.00 0.00 91 1015.1
20211017080128 55 277 0.0 0.0 0.00 0.00 0.00 91 1015.0
20211017074521 55 277 0.0 0.0 0.00 0.00 0.00 90 1014.9
20211017073101 56 277 0.0 0.0 0.00 0.00 0.00 91 1014.9
20211017071533 55 277 0.0 0.0 0.00 0.00 0.00 92 1015.0
20211017070042 56 277 0.0 0.0 0.00 0.00 0.00 88 1015.2
20211017064539 56 277 0.0 0.0 0.00 0.00 0.00 88 1015.3
20211017063013 56 277 0.0 0.0 0.00 0.00 0.00 85 1015.4
20211017061511 56 277 0.0 0.0 0.00 0.00 0.00 81 1015.3
20211017060010 57 277 0.0 0.0 0.00 0.00 0.00 78 1015.3
20211017054513 58 277 0.0 0.0 0.00 0.00 0.00 76 1015.2
20211017053023 58 277 0.0 0.0 0.00 0.00 0.00 71 1015.1
20211017051535 58 277 0.0 0.0 0.00 0.00 0.00 70 1015.0
20211017050008 60 277 0.0 0.0 0.00 0.00 0.00 68 1015.0
20211017044507 61 277 0.0 0.0 0.00 0.00 0.00 66 1014.9
20211017043008 62 277 0.0 0.0 0.00 0.00 0.00 64 1014.7
20211017041521 62 277 0.0 0.0 0.00 0.00 0.00 62 1014.6
20211017040009 64 277 0.0 0.0 0.00 0.00 0.00 59 1014.4
20211017034521 65 277 0.0 0.0 0.00 0.00 0.00 55 1014.2
20211017033006 66 277 0.0 3.0 0.00 0.00 0.00 51 1013.9
20211017031506 66 261 2.0 6.0 0.00 0.00 0.00 53 1013.8
20211017030008 67 288 0.0 7.0 0.00 0.00 0.00 52 1013.5
20211017024513 67 271 3.0 9.0 0.00 0.00 0.00 46 1013.3
20211017023003 67 279 0.0 7.0 0.00 0.00 0.00 49 1013.1
20211017021518 67 284 0.0 0.0 0.00 0.00 0.00 55 1012.8
20211017020003 67 290 0.0 4.0 0.00 0.00 0.00 55 1012.7
20211017014501 68 271 0.0 0.0 0.00 0.00 0.00 54 1012.5
20211017013138 69 261 0.0 0.0 0.00 0.00 0.00 52 1012.3
20211017011705 70 267 0.0 4.0 0.00 0.00 0.00 47 1012.4
20211017010239 72 286 1.0 5.0 0.00 0.00 0.00 42 1012.4
20211017004623 72 273 0.0 5.0 0.00 0.00 0.00 42 1012.4
20211017003120 73 263 1.0 6.0 0.00 0.00 0.00 42 1012.5
20211017001618 75 250 0.0 4.0 0.00 0.00 0.00 39 1012.6
20211017000250 77 267 2.0 9.0 0.00 0.00 0.00 33 1012.6
20211016234625 77 247 2.0 7.0 0.00 0.00 0.00 32 1012.6
20211016233148 77 272 3.0 10.0 0.00 0.00 0.00 35 1012.8
20211016231612 78 269 1.0 8.0 0.00 0.00 0.00 34 1012.9
20211016230134 78 289 3.0 10.0 0.00 0.00 0.00 35 1012.9
20211016224616 79 236 3.0 10.0 0.00 0.00 0.00 33 1013.0
20211016223104 80 272 4.0 11.0 0.00 0.00 0.00 28 1013.1
20211016221600 80 271 5.0 11.0 0.00 0.00 0.00 24 1013.2
20211016220125 82 249 3.0 12.0 0.00 0.00 0.00 21 1013.4
20211016214641 82 290 5.0 11.0 0.00 0.00 0.00 21 1013.5
20211016213050 82 288 5.0 12.0 0.00 0.00 0.00 17 1013.5
20211016211601 83 256 4.0 10.0 0.00 0.00 0.00 17 1013.6
20211016210111 82 254 2.0 9.0 0.00 0.00 0.00 20 1013.6
20211016204623 82 219 2.0 8.0 0.00 0.00 0.00 20 1013.8
20211016203136 82 265 3.0 10.0 0.00 0.00 0.00 23 1014.0
20211016201628 82 276 3.0 9.0 0.00 0.00 0.00 23 1014.3
20211016200102 82 255 1.0 6.0 0.00 0.00 0.00 25 1014.5
20211016194552 81 276 1.0 6.0 0.00 0.00 0.00 26 1014.6
20211016193041 82 216 0.0 6.0 0.00 0.00 0.00 24 1014.9
20211016191550 82 258 2.0 5.0 0.00 0.00 0.00 17 1015.0
20211016190051 82 247 0.0 4.0 0.00 0.00 0.00 24 1015.1
20211016184537 82 225 1.0 4.0 0.00 0.00 0.00 21 1015.3
20211016183112 82 246 0.0 4.0 0.00 0.00 0.00 25 1015.4
20211016181549 84 221 1.0 5.0 0.00 0.00 0.00 25 1015.4
20211016180051 85 224 1.0 4.0 0.00 0.00 0.00 23 1015.6
20211016174533 85 260 1.0 6.0 0.00 0.00 0.00 14 1015.6
20211016173039 84 273 0.0 0.0 0.00 0.00 0.00 18 1015.7
20211016171531 81 273 0.0 0.0 0.00 0.00 0.00 23 1015.8
20211016170018 79 273 0.0 0.0 0.00 0.00 0.00 24 1015.9
20211016164520 76 273 0.0 0.0 0.00 0.00 0.00 28 1015.8
20211016163001 75 273 0.0 0.0 0.00 0.00 0.00 29 1016.0
20211016161645 73 273 0.0 0.0 0.00 0.00 0.00 33 1016.0
20211016160147 70 273 0.0 0.0 0.00 0.00 0.00 40 1016.1
20211016154636 68 273 0.0 0.0 0.00 0.00 0.00 43 1016.1
20211016153115 63 273 0.0 0.0 0.00 0.00 0.00 53 1016.0
20211016151621 56 273 0.0 1.0 0.00 0.00 0.00 72 1016.0
20211016150107 50 345 0.0 0.0 0.00 0.00 0.00 84 1015.9
20211016144547 48 345 0.0 0.0 0.00 0.00 0.00 87 1015.8
20211016143140 48 345 0.0 0.0 0.00 0.00 0.00 87 1015.7
20211016141657 47 345 0.0 0.0 0.00 0.00 0.00 86 1015.5
20211016140045 47 345 0.0 0.0 0.00 0.00 0.00 85 1015.4
20211016134622 47 345 0.0 0.0 0.00 0.00 0.00 85 1015.4
20211016133102 48 345 0.0 0.0 0.00 0.00 0.00 84 1015.3
20211016131546 48 345 0.0 0.0 0.00 0.00 0.00 82 1015.1
20211016130042 49 345 0.0 0.0 0.00 0.00 0.00 81 1015.0
20211016124528 49 345 0.0 0.0 0.00 0.00 0.00 80 1015.0